{"data":{"norad_id":43924,"epoch":"2026-05-25T02:32:38.954688Z","epoch_age_seconds":61949,"freshness":"FRESH","line1":"1 43924U 19002C   26145.10600642  .00000052  00000+0  11499-4 0  9995","line2":"2 43924  86.3987   3.3240 0002161  87.2426 272.9017 14.34217813385666","mean_motion":14.34217813,"eccentricity":0.0002161,"inclination_deg":86.3987,"raan_deg":3.324,"arg_perigee_deg":87.2426,"mean_anomaly_deg":272.9017,"bstar":1.1499e-5,"rev_number":38566,"period_min":100.40315961408,"perigee_km":776.12057556862,"apogee_km":779.21331403356,"semimajor_km":7155.8039448011,"source":"CELESTRAK","updated_at":"2026-05-25T13:38:14.814178Z"}}